Weather in Bolshoye Chemenevo

Russia / Chuvash Republic     55°01′27″N   47°14′45″E
temp.,
°C
wind,
m/s
gust,
m/s
humid.,
%
clouds,
%
prec.,
mm/h
press.,
hPa
HPBL,
m
11 may, tue
tue1100:00+13nne6149390 0.0 1022391
03:00+12ne41197100 0.0 1022266
06:00+14ne3888100 0.0 1023223
09:00+19ene356054 0.0 1024452
12:00+23e4642100 0.0 10251729
15:00+23ese364689 0.0 10252075
18:00+20sse2559100 0.0 1026157
21:00+16se1168100 0.0 102711
12 may, wed
wed1200:00+14sse117842 0.0 102710
03:00+14ene22736 0.0 102732
06:00+16e277295 0.0 1027208
09:00+20ese4753100 0.0 1027722
12:00+23se6941100 0.0 10262111
15:00+23se510415 0.0 10262033
18:00+20se265787 0.0 1025156
21:00+15se256664 0.0 102677
13 may, thu
thu1300:00+15ese256690 0.0 1026135
03:00+13ese267653 0.0 1026114
06:00+15ese4106680 0.0 1025324
09:00+17se41258100 0.0 1025523
12:00+15ese3873100 0.3 1025292
15:00+18e51266100 1.1 1023483
18:00+20ese41361100 0.0 1021678
21:00+16sse3137589 0.1 1022339
14 may, fri
fri1400:00+14se31375100 0.1 1021278
03:00+13sse3117718 0.6 1021193
06:00+14sse27775 0.5 1021190
09:00+20s355589 0.6 1021510
12:00+24s5751100 0.0 10211124
15:00+25s4848100 0.0 10201549
18:00+23s310525 0.0 1020425
21:00+18sse37705 0.0 1020109
15 may, sat
sat1500:00+16s3126737 0.0 1020241
03:00+15s311665 0.0 1020185
06:00+18sse210585 0.0 1020230
09:00+24s4837100 0.0 1019518
12:00+26s6832100 0.0 10191079
15:00+26s51031100 0.0 10181402
18:00+23s412425 0.0 1018537
21:00+19sse4135219 0.0 1017265